Find Starlink 30825

NORAD ID: 58384 Int'l Des: 2023-178 Owner: SPXS Country: US Constellation: starlink operational
LEOCIRCULAR

Current View

Loading 3D Globe...

About Starlink 30825

Starlink 30825 (NORAD 58384) is a starlink constellation satellite (v2 mini) launched Nov 20, 2023 by SPXS of US. It operates in LEO, CIRCULAR orbit with a mass of 730.00 kg.

Upcoming Passes

Passes for default location (London). Set your location on the main map for personalized predictions.

Altitude History

Loading altitude history...

Two-Line Element Set

1 58384U 23178L 26234.59541592 -.00002448 00000-0 -61385-4 0 9993
2 58384 53.1608 306.7967 0001061 60.0314 300.0794 15.34379538155342
Epoch: Aug 22, 2026 • Age: 35 hours

Current Status

Altitude 473.4 km
Apogee / Perigee N/A
Velocity 7.63 km/s
Sub-Earth Point -32.15°S, 150.83°E
Launch Date Nov 20, 2023
Age 2.7 years
Type internet

Technical Details

Classification Payload
Mass 730.00 kg
Dry Mass 700.00 kg
Total Mass 730.00 kg
Length 0.30 m
Diameter 4.10 m
Span 29.00 m
Shape Box + pan
Manufacturer SPXS
Bus Type Starlink V2M
Phase Status In Orbit
Owner/State SPXS/US

Most Searched